Flag for Hungary Weather past 2 weeks in Pécs, Hungary

Now
44 °F

Overcast.


Feels Like: 41 °F
Forecast: 44 / 46 °F
Wind: 5 mph from West

Location: Pecs / Pogany

Current Time: Oct 23, 2014 at 5:58:24 AM

Latest Report: Oct 23, 2014 at 4:00 AM


Visibility: 6 mi

Pressure: 29.73 "Hg

Humidity: 91%

Dew point: 41 °F

Location of PécsLocation

Historic Weather in Pécs — Graph

°F

Pécs temperature yesterday

Maximum temperature yesterday: 59 °F (at 1:00 AM)
Minimum temperature yesterday: 43 °F (at 11:00 PM)
Average temperature yesterday: 48 °F

Past Weeks' High & Low Weather Summary

 TemperatureHumidityPressure
High79 °F (Oct 13, 4:00 PM)99% (Oct 8, 9:00 AM)30.38 "Hg (Oct 8, 9:00 AM)
Low42 °F (Oct 23, 12:00 AM)41% (Oct 10, 5:00 PM)29.56 "Hg (Oct 22, 4:00 AM)
Average61 °F81%30.00 "Hg
* Reported Oct 8 4:00 AM — Oct 23 4:00 AM, Pécs, Weather by CustomWeather, © 2014

Note: Actual official high and low records may vary slightly from our data, if they occured in-between our weather recording intervals... More about our weather records

Advertising

Pécs weather history for previous 24 hours

 ConditionsComfort  
Time TempWeatherWind HumidityBarometerVisibility
4:00 AM
Oct 23
44 °FOvercast.5 mph91%29.73 "Hg6 mi
3:00 AM44 °FOvercast.3 mph91%29.75 "Hg6 mi
2:00 AM43 °FOvercast.3 mph93%29.75 "Hg6 mi
1:00 AM43 °FOvercast.3 mph94%29.73 "Hg6 mi
12:00 AM42 °FPassing clouds.5 mph96%29.75 "Hg6 mi
11:00 PM
Oct 22
43 °FOvercast.3 mph95%29.76 "Hg6 mi
10:00 PM43 °FLight rain. Overcast.2 mph96%29.78 "Hg6 mi
9:00 PM44 °FOvercast.5 mph94%29.78 "Hg9 mi
8:00 PM44 °FOvercast.6 mph94%29.75 "Hg9 mi
7:00 PM44 °FOvercast.6 mph95%29.78 "Hg9 mi
6:00 PM45 °FLight rain. Overcast.5 mph93%29.75 "Hg9 mi
5:00 PM46 °FLow clouds.6 mph84%29.74 "Hg31 mi
4:00 PM45 °FLight rain. Overcast.7 mph92%29.74 "Hg7 mi
3:00 PM46 °FLight rain. Low clouds.6 mph90%29.72 "Hg16 mi
2:00 PM47 °FLight rain. Low clouds.6 mph82%29.72 "Hg19 mi
1:00 PM47 °FLow clouds.6 mph89%29.71 "Hg19 mi
12:00 PM45 °FLow clouds.6 mph90%29.74 "Hg19 mi
11:00 AM44 °FLight rain. Overcast.7 mph92%29.75 "Hg11 mi
10:00 AM45 °FLight rain. Overcast.9 mph86%29.75 "Hg5 mi
9:00 AM45 °FLight rain. Overcast.7 mph87%29.72 "Hg6 mi
8:00 AM45 °FRain. Overcast.10 mph86%29.71 "Hg6 mi
7:00 AM47 °FThundershowers. Overcast.7 mph85%29.70 "Hg9 mi
6:00 AM47 °FThundershowers. Overcast.16 mph84%29.65 "Hg9 mi
5:00 AM52 °FThundershowers. Overcast.16 mph96%29.60 "Hg4 mi
Weather by CustomWeather, © 2014

See weather overviewHow to use our weather pages